This demonstration page uses our WeatherBlox Daily Observations layout. Learn more.

Left ArrowRight Arrow

36.19886, -115.1175

Hourly Observations for December 1, 2018

Temp ( °F °C ) Dew Point ( °F °C ) Humidity (%) Winds ( mph kmh ) Pressure ( in mb ) Visibility ( mi km ) Precip ( " mm )
12:53 am 00:53 Clear 48 8.9 32 undefined 54 54 N 9 15 29.96 1015 10 16.0934 N/A
1:53 am 01:53 Clear 49 9.4 29 -1.7 46 46 N 12 19 29.96 1015 10 16.0934 N/A
2:53 am 02:53 Clear 48 8.9 27 -2.8 44 44 N 10 17 29.94 1014 10 16.0934 N/A
3:53 am 03:53 Clear 46 7.8 27 -2.8 47 47 S 3 6 29.96 1015 10 16.0934 N/A
4:53 am 04:53 Clear 43 6.1 30 -1.1 60 60 W 6 9 29.96 1014 10 16.0934 N/A
5:53 am 05:53 Clear 42 5.6 30 -1.1 62 62 VRB 3 6 29.98 1015 10 16.0934 N/A
6:53 am 06:53 Sunny 41 5 31 -0.6 67 67 N N/A 29.99 1016 10 16.0934 N/A
7:53 am 07:53 Sunny 44 6.7 29 -1.7 55 55 NNW 3 6 29.98 1015 10 16.0934 N/A
8:53 am 08:53 Sunny 49 9.4 31 -0.6 50 50 N N/A 29.98 1015 10 16.0934 N/A
9:53 am 09:53 Sunny 50 10 31 -0.6 48 48 N N/A 29.97 1015 10 16.0934 N/A
10:53 am 10:53 Sunny 54 12.2 28 -2.2 37 37 SSE 6 9 29.92 1013 10 16.0934 N/A
11:53 am 11:53 Sunny 55 12.8 26 -3.3 33 33 ESE 5 7 29.88 1012 10 16.0934 N/A
12:53 pm 12:53 Sunny 56 13.3 31 -0.6 39 39 SE 6 9 29.81 1010 10 16.0934 N/A
1:53 pm 13:53 Mostly Cloudy 60 15.6 34 1.1 38 38 SSW 15 24 29.76 1008 10 16.0934 N/A
2:02 pm 14:02 Partly Cloudy 60 15.6 34 1.1 38 38 SSW 20 31 29.65 1004 10 16.0934 N/A
2:53 pm 14:53 Mostly Sunny 59 15 32 undefined 36 36 SSW 17 28 29.75 1007 10 16.0934 N/A
3:53 pm 15:53 Sunny 56 13.3 30 -1.1 37 37 S 14 22 29.74 1007 10 16.0934 N/A
4:53 pm 16:53 Clear 53 11.7 31 -0.6 43 43 S 9 15 29.74 1007 10 16.0934 N/A
5:53 pm 17:53 Clear 55 12.8 26 -3.3 33 33 WNW 12 19 29.73 1007 10 16.0934 N/A
6:53 pm 18:53 Clear 51 10.6 31 -0.6 46 46 N N/A 29.75 1008 10 16.0934 N/A
7:53 pm 19:53 Clear 48 8.9 32 undefined 54 54 NNW 7 11 29.76 1008 10 16.0934 N/A
8:53 pm 20:53 Clear 48 8.9 31 -0.6 52 52 NW 7 11 29.77 1008 10 16.0934 N/A
9:53 pm 21:53 Mostly Cloudy 49 9.4 32 undefined 52 52 NW 23 37 29.8 1009 10 16.0934 N/A
10:53 pm 22:53 Mostly Clear 46 7.8 33 0.6 61 61 NNW 23 37 29.83 1010 10 16.0934 N/A
11:53 pm 23:53 Cloudy 47 8.3 32 undefined 56 56 WNW 16 26 29.83 1010 10 16.0934 N/A

Powered by AerisWeather